NOAA 16 DEB

Satellite information

Favourite Embed

Satellite Type and Status

DEBRISIN ORBIT

Key statistics

Satellite NOAA 16 DEB at a glance.

Uptime

9053

Days in orbit

Revolutions

≈ 14.3

Per day

Orbit

SSO

Sun Synchronous Orbit

Inclination

98.8

Latest

Satellite identification and parameters

Extended collection of information and parameters for NOAA 16 DEB.

Object identification

Identified? True

Debris? True

Object name: NOAA 16 DEB

International designator: 2000-055QA

Object number (NORAD): 42334

Object ID (CCSDS): 42334

Country: UNITED STATES OF AMERICA (US)

Current information (Y/N): Y

RCS size: SMALL

Orbital parameters

Period: 100.374 minutes

Inclination: 98.8345 deg

SMA: 7154.431 km

Apoapsis: 787.403 km

Periapsis: 765.19 km

RAAN: 298.4283 deg

Eccentricy: 0.0015524

Argument of periapsis: 146.8001 deg

Mean anomaly: 213.4161 deg

Mean motion: 14.34630543 rev/day

Mean motion (dot): 0.00003563 rev/day2

B* drag term: 0.0012743 1/REarth

Two-line elements (TLE)

Creation date: July 2, 2025, 5:47 p.m.

Reference frame: TEME

Reference center: EARTH

Epoch: July 2, 2025, 1:32 p.m. UTC

TLE line 0: 0 NOAA 16 DEB

TLE line 1: 1 42334U 00055QA 25183.56425123 .00003563 00000-0 12743-2 0 9999

TLE line 2: 2 42334 98.8345 298.4283 0015524 146.8001 213.4161 14.34630543461639

Live tracking on map

Real-time ground track for satellite NOAA 16 DEB.

In-orbit conjunctions

A list of the most updated potential collisions computed for object NOAA 16 DEB.

Target Orbit TCA Probability of collision Miss distance Type
IRIDIUM 26 LEO 2025-05-27 21:43:41 0.0001275176 875.0 (m) PAYLOAD
COSMOS 2298 LEO 2025-02-15 05:44:56 0.0004528471 91.0 (m) PAYLOAD
CZ-6A DEB LEO 2025-01-08 00:16:06 0.0001620602 221.0 (m) DEBRIS
FENGYUN 1C DEB SSO 2024-09-28 11:37:51 0.0001811282 141.0 (m) DEBRIS
THOR BURNER 2A R/B SSO 2024-09-27 20:38:09 0.0004031736 388.0 (m) ROCKET BODY

Associated space launch

The NOAA K, L and M POES satellites begin the fifth generation of improved environmental monitoring in support of NOAA missions. The instrument payload has significant improvements and additions/deletions. The instrument changes have effected the spacecraft subsystems and data formats.

NOAA 16 DEB was lifted into orbit during the mission ‘Titan II SLV | NOAA 16’, on board a Titan II SLV space rocket.

The launch took place on Sept. 21, 2000, 10:22 a.m. from Space Launch Complex 4W.

For more information about the launch, click the button.

Launch to space Titan II SLV | NOAA 16
Titan II SLV | NOAA 16

Agency: N/A

Status: Launch Successful

Launch date: Sept. 21, 2000, 10:22 a.m. UTC

Rocket: Titan II SLV

Launch pad: Space Launch Complex 4W

Location: Vandenberg SFB, CA, USA

...

Latest news about this satellite

There are no fresh news available about this satellite. Check back as we update our databases every day.


Newsletter sign-up

Weekly statistics, charts and insights to help you stay on top of the space industry.